Location: Coll
(42.4728°N, 0.7714°E)
Time: 12:14:50
(UTC+00:00)

Cosmos 2142 Rocket - Pass Details

Date: 23 October 2020
Orbit: 953 x 1004 km, 83.0° (Epoch: 30 November)

Event Time Altitude Azimuth Distance (km) Brightness Sun altitude
Rises 04:28:41 0° 348° (NNW) 3,663 7.4 -21.1°
Reaches altitude 10° 04:31:14 10° 344° (NNW) 2,718 6.7 -20.6°
Maximum altitude 04:37:17 57° 268° (W) 1,146 4.5 -19.5°
Drops below altitude 10° 04:43:23 10° 192° (SSW) 2,735 6.7 -18.4°
Sets 04:45:57 0° 188° (S) 3,686 7.4 -17.9°
